Date String (YYYY-MM-DD hh:mm:ss) UTC,Instrument flags,absolute air pressure of the measurement (hPa),sample flow rate (lpm),inlet stack bypass flow (lpm),air temperature of the measurement (°C),ambient temperature measured by the external sensor (°C),aerosol sample conditioner tube jacket temperature (°C),OPC LED temperature (°C),internal box temperature (°C),relative humidity of the measurement (%),span deviation,mass concentration of particles derived from Lorenz-Mie calculation of OPC scattering (μg/m³),mass concentration of particles derived from Lorenz-Mie calculation of OPC scattering (μg/m³),mass concentration of particles derived from Lorenz-Mie calculation of OPC scattering (μg/m³)
DateTimeUTC,F1_M11,P_M11,Q1_M11,Q2_M11,T1_M11,T2_M11,T3_M11,T4_M11,T5_M11,U1_M11,ZSPAN_M11,X0_M11,X2_M11,X1_M11
2024-06-07 04:00:00,SystemResetWarning,0829.7,5.00,000.00,029.6,029.0,000.0,037.7,031.4,020.5,0000.0,0018.04,0003.88,0001.73
2024-06-07 04:01:00,SystemResetWarning,0829.7,5.00,000.00,029.7,029.1,000.0,037.7,031.5,020.2,0000.0,0018.85,0003.95,0001.73
2024-06-07 04:02:00,SystemResetWarning,0829.7,5.00,000.00,029.7,029.3,000.0,037.8,031.6,020.0,0000.0,0019.32,0003.89,0001.74
2024-06-07 04:03:00,SystemResetWarning,0829.7,4.99,000.00,029.8,029.4,000.0,037.8,031.7,020.1,0000.0,0018.66,0003.86,0001.76
2024-06-07 04:04:00,SystemResetWarning,0829.7,4.99,000.00,029.9,029.5,000.0,037.8,031.7,020.3,0000.0,0017.11,0003.86,0001.78
2024-06-07 04:05:00,SystemResetWarning,0829.7,4.99,000.00,029.8,028.2,000.0,037.9,031.1,020.3,0000.0,0017.24,0003.86,0001.80
2024-06-07 04:06:00,SystemResetWarning,0829.6,5.00,000.00,029.3,025.6,000.0,037.9,029.8,020.6,0000.0,0017.62,0003.80,0001.80
2024-06-07 04:07:00,SystemResetWarning,0829.5,5.01,000.00,028.9,025.2,000.0,037.9,029.5,021.1,0000.0,0018.24,0003.80,0001.80
2024-06-07 04:08:00,SystemResetWarning,0829.6,5.02,000.00,028.8,025.7,000.0,037.8,029.7,021.6,0000.0,0018.38,0003.76,0001.80
2024-06-07 04:09:00,SystemResetWarning,0829.6,4.99,000.00,028.8,026.2,000.0,037.6,030.0,021.7,0000.0,0018.11,0003.78,0001.80
2024-06-07 04:10:00,SystemResetWarning,0829.6,5.00,000.00,028.8,026.7,000.0,037.6,030.2,021.8,0000.0,0018.23,0003.75,0001.83
2024-06-07 04:11:00,SystemResetWarning,0829.6,5.00,000.00,028.9,027.2,000.0,037.5,030.4,021.5,0000.0,0019.12,0003.74,0001.84
2024-06-07 04:12:00,SystemResetWarning,0829.5,5.00,000.00,029.0,027.6,000.0,037.5,030.6,021.1,0000.0,0018.65,0003.71,0001.85
2024-06-07 04:13:00,SystemResetWarning,0829.6,5.00,000.00,029.0,027.9,000.0,037.4,030.8,021.4,0000.0,0018.31,0003.70,0001.84
2024-06-07 04:14:00,SystemResetWarning,0829.5,5.00,000.00,029.1,028.1,000.0,037.4,030.9,021.3,0000.0,0017.67,0003.71,0001.83
2024-06-07 04:15:00,SystemResetWarning,0829.5,5.00,000.00,029.2,028.3,000.0,037.4,031.0,020.9,0000.0,0017.97,0003.69,0001.83
2024-06-07 04:16:00,SystemResetWarning,0829.5,5.00,000.00,029.3,028.5,000.0,037.4,031.1,020.8,0000.0,0018.03,0003.64,0001.82
2024-06-07 04:17:00,SystemResetWarning,0829.5,5.00,000.00,029.3,028.7,000.0,037.5,031.2,020.9,0000.0,0016.15,0003.60,0001.81
2024-06-07 04:18:00,SystemResetWarning,0829.4,5.00,000.00,029.4,028.8,000.0,037.5,031.3,020.8,0000.0,0015.62,0003.58,0001.83
2024-06-07 04:19:00,SystemResetWarning,0829.5,4.99,000.00,029.5,029.0,000.0,037.5,031.4,020.5,0000.0,0014.77,0003.59,0001.85
2024-06-07 04:20:00,SystemResetWarning,0829.5,5.00,000.00,029.6,029.1,000.0,037.6,031.4,020.4,0000.0,0014.72,0003.61,0001.85
2024-06-07 04:21:00,SystemResetWarning,0829.4,4.99,000.00,029.6,029.2,000.0,037.6,031.5,020.3,0000.0,0014.52,0003.64,0001.85
2024-06-07 04:22:00,SystemResetWarning,0829.4,5.00,000.00,029.7,029.3,000.0,037.7,031.6,020.0,0000.0,0013.85,0003.65,0001.85
2024-06-07 04:23:00,SystemResetWarning,0829.4,5.00,000.00,029.8,029.4,000.0,037.7,031.6,020.0,0000.0,0014.08,0003.64,0001.87
2024-06-07 04:24:00,SystemResetWarning,0829.4,5.01,000.00,029.8,029.4,000.0,037.7,031.7,019.9,0000.0,0014.56,0003.67,0001.89
2024-06-07 04:25:00,SystemResetWarning,0829.3,5.00,000.00,029.9,029.5,000.0,037.8,031.8,020.0,0000.0,0014.85,0003.67,0001.90
2024-06-07 04:26:00,SystemResetWarning,0829.4,5.00,000.00,030.0,029.6,000.0,037.8,031.8,019.9,0000.0,0016.61,0003.66,0001.88
2024-06-07 04:27:00,SystemResetWarning,0829.3,5.00,000.00,030.0,029.1,000.0,037.9,031.6,019.7,0000.0,0016.26,0003.75,0001.90
2024-06-07 04:28:00,SystemResetWarning,0829.3,5.00,000.00,029.7,026.8,000.0,038.0,030.5,020.1,0000.0,0016.77,0003.82,0001.91
2024-06-07 04:29:00,SystemResetWarning,0829.4,5.02,000.00,029.4,026.3,000.0,038.0,030.2,020.5,0000.0,0016.41,0003.85,0001.92
2024-06-07 04:30:00,SystemResetWarning,0829.4,4.99,000.00,029.2,026.7,000.0,037.9,030.3,020.6,0000.0,0016.30,0003.85,0001.91
2024-06-07 04:31:00,SystemResetWarning,0829.4,5.00,000.00,029.2,027.1,000.0,037.8,030.5,020.7,0000.0,0016.74,0003.81,0001.90
2024-06-07 04:32:00,SystemResetWarning,0829.3,5.00,000.00,029.3,027.5,000.0,037.7,030.8,020.7,0000.0,0017.21,0003.78,0001.90
2024-06-07 04:33:00,SystemResetWarning,0829.3,5.01,000.00,029.3,027.9,000.0,037.7,030.9,020.6,0000.0,0017.17,0003.76,0001.90
2024-06-07 04:34:00,SystemResetWarning,0829.4,4.99,000.00,029.4,028.1,000.0,037.7,031.1,020.5,0000.0,0016.59,0003.78,0001.90
2024-06-07 04:35:00,SystemResetWarning,0829.4,5.00,000.00,029.4,028.4,000.0,037.7,031.2,020.2,0000.0,0016.38,0003.77,0001.88
2024-06-07 04:36:00,SystemResetWarning,0829.4,5.00,000.00,029.5,028.6,000.0,037.7,031.3,020.0,0000.0,0016.69,0003.75,0001.88
2024-06-07 04:37:00,SystemResetWarning,0829.4,5.00,000.00,029.6,028.8,000.0,037.7,031.4,019.8,0000.0,0015.05,0003.81,0001.89
2024-06-07 04:38:00,SystemResetWarning,0829.4,5.00,000.00,029.6,028.9,000.0,037.7,031.4,019.7,0000.0,0014.59,0003.78,0001.88
2024-06-07 04:39:00,SystemResetWarning,0829.4,5.00,000.00,029.7,029.1,000.0,037.8,031.5,019.7,0000.0,0015.03,0003.76,0001.88
2024-06-07 04:40:00,SystemResetWarning,0829.4,4.99,000.00,029.8,029.2,000.0,037.8,031.6,019.7,0000.0,0016.25,0003.76,0001.87
2024-06-07 04:41:00,SystemResetWarning,0829.4,4.99,000.00,029.8,029.3,000.0,037.8,031.6,019.7,0000.0,0016.13,0003.73,0001.87
2024-06-07 04:42:00,SystemResetWarning,0829.3,5.01,000.00,029.9,029.4,000.0,037.9,031.7,019.6,0000.0,0015.77,0003.70,0001.88
2024-06-07 04:43:00,SystemResetWarning,0829.3,5.00,000.00,029.9,029.5,000.0,037.9,031.8,019.6,0000.0,0014.50,0003.66,0001.89
2024-06-07 04:44:00,SystemResetWarning,0829.4,5.00,000.00,030.0,029.6,000.0,038.0,031.8,019.5,0000.0,0014.24,0003.74,0001.89
2024-06-07 04:45:00,SystemResetWarning,0829.4,4.99,000.00,030.0,029.6,000.0,038.0,031.9,019.4,0000.0,0014.16,0003.72,0001.89
2024-06-07 04:46:00,SystemResetWarning,0829.4,5.00,000.00,030.1,029.7,000.0,038.0,031.9,019.2,0000.0,0013.73,0003.67,0001.87
2024-06-07 04:47:00,SystemResetWarning,0829.3,4.99,000.00,030.1,028.6,000.0,038.1,031.4,019.2,0000.0,0014.21,0003.68,0001.87
2024-06-07 04:48:00,SystemResetWarning,0829.2,5.01,000.00,029.6,026.5,000.0,038.2,030.3,019.8,0000.0,0014.46,0003.66,0001.86
2024-06-07 04:49:00,SystemResetWarning,0829.1,5.01,000.00,029.4,026.4,000.0,038.1,030.2,020.0,0000.0,0014.65,0003.69,0001.87
2024-06-07 04:50:00,SystemResetWarning,0829.2,4.99,000.00,029.3,026.8,000.0,038.0,030.4,020.2,0000.0,0014.20,0003.65,0001.88
2024-06-07 04:51:00,SystemResetWarning,0829.2,4.99,000.00,029.3,027.2,000.0,037.9,030.6,020.2,0000.0,0012.68,0003.65,0001.88
2024-06-07 04:52:00,SystemResetWarning,0829.2,5.01,000.00,029.4,027.6,000.0,037.9,030.9,020.1,0000.0,0014.82,0003.72,0001.88
2024-06-07 04:53:00,SystemResetWarning,0829.2,4.99,000.00,029.4,028.0,000.0,037.8,031.0,020.0,0000.0,0014.62,0003.77,0001.87
2024-06-07 04:54:00,SystemResetWarning,0829.2,5.00,000.00,029.5,028.2,000.0,037.8,031.1,019.8,0000.0,0015.02,0003.77,0001.87
2024-06-07 04:55:00,SystemResetWarning,0829.2,5.00,000.00,029.5,028.5,000.0,037.8,031.2,019.8,0000.0,0015.99,0003.76,0001.86
2024-06-07 04:56:00,SystemResetWarning,0829.2,4.99,000.00,029.6,028.7,000.0,037.8,031.3,019.9,0000.0,0016.71,0003.77,0001.87
2024-06-07 04:57:00,SystemResetWarning,0829.2,5.00,000.00,029.6,028.8,000.0,037.8,031.4,019.6,0000.0,0017.27,0003.81,0001.88
2024-06-07 04:58:00,SystemResetWarning,0829.2,5.00,000.00,029.7,029.0,000.0,037.8,031.5,019.6,0000.0,0016.89,0003.80,0001.89
2024-06-07 04:59:00,SystemResetWarning,0829.2,5.00,000.00,029.8,029.1,000.0,037.8,031.6,019.5,0000.0,0017.69,0003.81,0001.91
